TimeCDT,TemperatureF,Dew PointF,Humidity,Sea Level PressureIn,VisibilityMPH,Wind Direction,Wind SpeedMPH,Gust SpeedMPH,PrecipitationIn,Events,Conditions,WindDirDegrees,DateUTC
12:15 AM,52.3,36.1,54,30.30,10.0,SE,8.1,-,N/A,,Clear,140,2013-10-14 05:15:00
12:35 AM,53.2,36.0,52,30.29,10.0,SE,8.1,-,N/A,,Scattered Clouds,140,2013-10-14 05:35:00
12:55 AM,52.7,36.5,54,30.29,10.0,SE,9.2,-,N/A,,Scattered Clouds,140,2013-10-14 05:55:00
1:15 AM,52.7,36.1,53,30.28,10.0,SE,8.1,-,N/A,,Clear,130,2013-10-14 06:15:00
1:35 AM,52.9,35.8,52,30.28,10.0,SE,8.1,-,N/A,,Clear,140,2013-10-14 06:35:00
1:55 AM,51.8,36.0,55,30.28,10.0,ESE,9.2,-,N/A,,Clear,120,2013-10-14 06:55:00
2:15 AM,50.9,36.0,57,30.27,10.0,ESE,8.1,-,N/A,,Clear,120,2013-10-14 07:15:00
2:35 AM,50.5,35.6,57,30.27,10.0,SE,8.1,-,N/A,,Clear,130,2013-10-14 07:35:00
2:55 AM,51.1,35.6,55,30.26,10.0,SE,6.9,-,N/A,,Scattered Clouds,140,2013-10-14 07:55:00
3:15 AM,51.1,35.1,54,30.25,10.0,SE,9.2,-,N/A,,Scattered Clouds,130,2013-10-14 08:15:00
3:35 AM,50.9,34.3,53,30.24,10.0,SE,8.1,-,N/A,,Clear,130,2013-10-14 08:35:00
3:55 AM,50.7,34.2,53,30.23,10.0,SE,9.2,-,N/A,,Clear,130,2013-10-14 08:55:00
4:15 AM,50.9,33.8,52,30.22,10.0,SE,10.4,-,N/A,,Clear,140,2013-10-14 09:15:00
4:35 AM,51.3,33.4,51,30.21,10.0,SE,13.8,18.4,N/A,Thunderstorm,Clear,130,2013-10-14 09:35:00
4:55 AM,51.6,32.9,49,30.19,10.0,SE,12.7,19.6,N/A,,Clear,130,2013-10-14 09:55:00
5:15 AM,51.1,33.1,50,30.18,10.0,SE,12.7,18.4,N/A,Thunderstorm,Clear,130,2013-10-14 10:15:00
5:35 AM,50.9,32.9,50,30.18,10.0,SE,12.7,19.6,N/A,,Clear,130,2013-10-14 10:35:00
5:55 AM,51.1,32.9,50,30.16,10.0,SE,11.5,20.7,N/A,,Scattered Clouds,130,2013-10-14 10:55:00
6:15 AM,51.8,32.5,48,30.16,10.0,SE,13.8,18.4,N/A,,Scattered Clouds,140,2013-10-14 11:15:00
6:35 AM,52.0,32.9,48,30.16,10.0,SE,12.7,-,N/A,,Scattered Clouds,140,2013-10-14 11:35:00
6:55 AM,52.9,32.9,47,30.17,10.0,SE,15.0,21.9,N/A,,Scattered Clouds,140,2013-10-14 11:55:00
7:15 AM,52.3,33.6,49,30.17,10.0,SSE,11.5,-,N/A,,Scattered Clouds,150,2013-10-14 12:15:00
7:35 AM,52.3,33.8,49,30.16,10.0,SE,12.7,18.4,N/A,,Scattered Clouds,140,2013-10-14 12:35:00
7:55 AM,52.9,33.8,48,30.15,10.0,SE,15.0,19.6,N/A,,Mostly Cloudy,140,2013-10-14 12:55:00
8:15 AM,52.7,34.2,49,30.15,10.0,SE,11.5,-,N/A,,Mostly Cloudy,140,2013-10-14 13:15:00
8:35 AM,52.9,34.3,49,30.14,10.0,SE,12.7,17.3,N/A,,Mostly Cloudy,140,2013-10-14 13:35:00
8:55 AM,53.2,34.5,49,30.14,10.0,SE,13.8,19.6,N/A,,Mostly Cloudy,140,2013-10-14 13:55:00
9:15 AM,53.6,34.9,49,30.13,10.0,SE,15.0,19.6,N/A,,Mostly Cloudy,140,2013-10-14 14:15:00
9:35 AM,54.7,34.7,47,30.12,10.0,SE,15.0,21.9,N/A,Thunderstorm,Mostly Cloudy,140,2013-10-14 14:35:00
9:55 AM,55.6,35.4,47,30.11,10.0,SE,13.8,18.4,N/A,,Mostly Cloudy,140,2013-10-14 14:55:00
10:15 AM,56.3,35.8,46,30.12,10.0,SSE,13.8,19.6,N/A,,Mostly Cloudy,160,2013-10-14 15:15:00
10:35 AM,56.3,35.6,46,30.12,10.0,SSE,16.1,20.7,N/A,,Overcast,150,2013-10-14 15:35:00
10:55 AM,55.8,37.0,49,30.12,10.0,SSE,10.4,-,N/A,Rain,Light Rain,150,2013-10-14 15:55:00
11:15 AM,52.5,41.7,67,30.12,5.0,SSE,11.5,19.6,0.03,Rain-Thunderstorm,Rain,160,2013-10-14 16:15:00
11:35 AM,50.9,44.2,78,30.10,7.0,SSE,12.7,-,0.07,Rain,Rain,150,2013-10-14 16:35:00
11:55 AM,51.1,45.5,81,30.08,10.0,SE,12.7,18.4,0.09,,Overcast,130,2013-10-14 16:55:00
12:15 PM,51.8,46.2,81,30.07,10.0,SE,8.1,16.1,N/A,,Overcast,140,2013-10-14 17:15:00
12:35 PM,52.3,47.3,83,30.05,10.0,ESE,9.2,-,N/A,,Overcast,120,2013-10-14 17:35:00
12:55 PM,54.7,46.9,75,30.01,10.0,ESE,11.5,17.3,N/A,,Mostly Cloudy,110,2013-10-14 17:55:00
1:15 PM,57.6,45.7,65,30.00,10.0,ESE,10.4,19.6,N/A,,Mostly Cloudy,120,2013-10-14 18:15:00
1:35 PM,59.0,45.9,62,29.98,10.0,SE,9.2,18.4,N/A,,Overcast,130,2013-10-14 18:35:00
1:55 PM,63.1,47.3,56,29.96,10.0,SE,12.7,20.7,N/A,,Mostly Cloudy,130,2013-10-14 18:55:00
2:15 PM,65.7,44.8,47,29.94,10.0,SE,15.0,26.5,N/A,,Scattered Clouds,140,2013-10-14 19:15:00
2:35 PM,65.5,46.2,50,29.93,10.0,SE,17.3,23.0,N/A,,Mostly Cloudy,140,2013-10-14 19:35:00
2:55 PM,64.6,48.2,55,29.93,10.0,South,15.0,23.0,N/A,Rain,Rain,170,2013-10-14 19:55:00
3:15 PM,62.6,50.0,63,29.92,10.0,South,10.4,-,N/A,Rain,Rain,170,2013-10-14 20:15:00
3:35 PM,60.1,55.0,83,29.91,4.0,SSE,13.8,24.2,0.04,Rain,Rain,160,2013-10-14 20:35:00
3:55 PM,59.9,55.0,84,29.90,10.0,SSE,13.8,18.4,0.05,,Overcast,150,2013-10-14 20:55:00
4:15 PM,59.2,55.0,86,29.91,3.0,South,20.7,31.1,0.03,Rain,Rain,170,2013-10-14 21:15:00
4:35 PM,58.1,57.4,97,29.89,5.0,SSE,18.4,27.6,0.07,Rain,Light Rain,150,2013-10-14 21:35:00
4:55 PM,57.4,57.4,100,29.87,4.0,SE,17.3,20.7,0.07,Rain,Light Rain,140,2013-10-14 21:55:00
5:15 PM,57.2,57.2,100,29.86,3.0,SE,15.0,23.0,0.01,Rain,Rain,140,2013-10-14 22:15:00
5:35 PM,57.4,57.4,100,29.84,2.5,SSE,17.3,26.5,0.03,Rain,Light Rain,150,2013-10-14 22:35:00
5:55 PM,57.6,57.6,100,29.84,5.0,SSE,19.6,25.3,0.06,Rain-Thunderstorm,Light Thunderstorms and Rain,150,2013-10-14 22:55:00
6:15 PM,58.1,58.1,100,29.83,4.0,SSE,17.3,25.3,0.01,Rain-Thunderstorm,Light Thunderstorms and Rain,150,2013-10-14 23:15:00
6:35 PM,58.3,58.3,100,29.81,5.0,SSE,17.3,27.6,0.01,Thunderstorm,Overcast,160,2013-10-14 23:35:00
6:55 PM,58.5,58.5,100,29.80,4.0,SSE,19.6,35.7,0.01,Thunderstorm,Overcast,160,2013-10-14 23:55:00
7:15 PM,58.6,58.6,100,29.79,5.0,SSE,23.0,31.1,N/A,Thunderstorm,Overcast,160,2013-10-15 00:15:00
7:35 PM,58.6,58.6,100,29.78,10.0,SSE,25.3,33.4,N/A,Thunderstorm,Overcast,160,2013-10-15 00:35:00
7:55 PM,59.0,59.0,100,29.77,7.0,SSE,23.0,35.7,N/A,Rain-Thunderstorm,Light Thunderstorms and Rain,160,2013-10-15 00:55:00
8:15 PM,59.0,59.0,100,29.78,10.0,South,20.7,32.2,N/A,Thunderstorm,Thunderstorm,170,2013-10-15 01:15:00
8:35 PM,59.0,59.0,100,29.77,10.0,South,25.3,33.4,N/A,Thunderstorm,Thunderstorm,170,2013-10-15 01:35:00
8:55 PM,59.2,59.2,100,29.79,5.0,South,16.1,28.8,N/A,Rain-Thunderstorm,Thunderstorms and Rain,190,2013-10-15 01:55:00
9:15 PM,59.4,59.4,100,29.82,4.0,WSW,11.5,-,0.09,Rain-Thunderstorm,Heavy Thunderstorms and Rain,240,2013-10-15 02:15:00
9:35 PM,59.9,59.9,100,29.83,3.0,SSW,12.7,18.4,0.40,Rain,Heavy Rain,210,2013-10-15 02:35:00
9:55 PM,60.1,60.1,100,29.82,4.0,SSW,13.8,-,0.54,Rain,Heavy Rain,200,2013-10-15 02:55:00
10:15 PM,60.1,60.1,100,29.80,7.0,South,16.1,-,0.03,Rain,Rain,180,2013-10-15 03:15:00
10:35 PM,59.9,59.9,100,29.79,10.0,South,12.7,21.9,0.05,Rain,Light Rain,170,2013-10-15 03:35:00
10:55 PM,58.6,58.6,100,29.80,10.0,South,12.7,-,0.05,,Overcast,190,2013-10-15 03:55:00
11:15 PM,58.5,58.5,100,29.81,10.0,SSW,11.5,-,N/A,,Overcast,200,2013-10-15 04:15:00
11:35 PM,58.6,58.6,100,29.81,10.0,SW,10.4,-,N/A,Rain,Light Rain,220,2013-10-15 04:35:00
11:55 PM,58.1,58.1,100,29.81,10.0,WSW,10.4,18.4,N/A,,Overcast,250,2013-10-15 04:55:00